Lid_Strength_Index
1 -1 -1 -1 -1 -1 -1 -1 -1 -1 -2 -2 -2 -2 -2 -2 -2 -2 -2 -2 -2 -2 -2 -2 -2 -2 -2 -2 -2 -2 -3 -2 -2 -2 -2 -2 -2 -2 -2 -2 -2 -1 -2
-0 -1 -0 -1 -1 -1 -1 -1 -1 -1 -2 -2 -2 -2 -2 -2 -2 -3 -3 -3 -2 -2 -2 -2 -2 -2 -2 -2 -2 -2 -2 -2 -2 -2 -2 -2 -3 -2 -2 -2 -2 -1 -1
-0 -1 -1 -1 -1 -1 -1 -1 -1 -1 -2 -2 -2 -2 -2 -2 -2 -2 -2 -2 -2 -2 -2 -2 -2 -2 -2 -2 -2 -2 -2 -2 -2 -2 -3 -2 -2 -2 -2 -1 -1 -1 -1
-0 -1 -1 -0 -1 -1 -1 -1 -1 -1 -2 -2 -2 -2 -2 -2 -2 -2 -2 -2 -3 -2 -2 -2 -2 -2 -2 -2 -2 -2 -2 -2 -2 -2 -1 -1 -1 -2 -1 -1 -1 -1 -1
-0 -1 -1 -0 -1 -1 -1 -1 -1 -1 -1 -2 -2 -2 -2 -2 -2 -2 -2 -2 -3 -2 -2 -2 -2 -2 -2 -2 -2 -2 -2 -2 -2 -1 -1 -1 -1 -1 -1 -1 -1 -1 -1
-0 -0 -0 -1 -1 -1 -1 -1 -1 -1 -1 -1 -2 -2 -2 -2 -2 -2 -2 -2 -2 -2 -2 -2 -2 -2 -2 -2 -2 -2 -2 -2 -2 -1 -1 -1 -1 -1 -1 -1 -1 -1 -1
0 -1 -1 -0 -1 -1 -1 -1 -1 -1 -1 -1 -1 -2 -2 -2 -2 -2 -2 -2 -2 -2 -2 -2 -2 -2 -2 -2 -2 -2 -1 -1 -1 -1 -1 -0 -0 -1 -1 -1 -1 -1 -1
0 -0 -1 1 0 -0 -1 -1 -1 -1 -1 -1 -1 -1 -2 -2 -2 -2 -2 -2 -2 -2 -2 -2 -2 -2 -2 -2 -2 -2 -1 -1 0 0 -0 -0 -1 -0 -0 -0 -0 -1 -1
-0 -0 -1 -1 -0 1 0 -0 -1 -1 -1 -1 -1 -1 -1 -1 -1 -2 -2 -2 -1 -2 -2 -2 -2 -2 -2 -2 -1 -1 -0 0 -0 0 1 -1 -1 -0 -0 -0 -1 -1 -1
0 -0 -0 -1 -1 -1 -1 1 1 -0 -0 -0 -0 0 0 0 -0 -1 -1 -1 -1 -1 -2 -2 -2 -1 -1 -1 -1 -0 -0 1 -0 -0 -0 -0 -1 -1 -1 -1 -1 -1 -1
1 0 -0 -0 -1 -1 -1 0 1 2 1 1 1 2 1 -1 -1 -0 0 -1 -1 -1 -2 -1 -1 -1 -2 -1 -1 0 1 -0 -0 -0 -0 -0 -1 -1 -1 -1 -1 -1 -1
2 1 0 -0 -0 -1 -1 -1 -1 -1 -1 -1 -1 -1 -1 -1 -1 -1 1 0 -0 0 -1 -1 -1 -1 0 -0 -1 1 -0 -0 0 0 -0 0 -1 -1 -1 -1 -1 -1 -1
2 1 0 0 -0 -0 -1 -1 -1 -1 -1 -1 -1 -1 -1 -1 -1 -1 -1 -1 -1 2 1 0 -0 0 -0 -1 -1 -0 -0 0 1 0 1 1 -1 -1 -1 -1 -1 -1 -1
2 1 1 0 0 -0 -1 -0 -0 -0 -0 -1 -1 -1 -1 -0 -1 -1 -1 -1 -1 0 1 0 0 -1 -1 -1 -0 0 1 0 0 -0 1 2 -1 -2 -1 -1 -1 -2 -2
2 1 1 0 1 -0 -0 -0 -0 -0 -0 -1 -1 -1 -1 -1 -1 -1 -1 -1 -1 -0 1 1 -0 -0 -0 0 1 1 1 0 -0 -0 0 2 0 -1 -1 -1 -1 -1 -2
2 1 1 0 0 -0 -0 -0 -0 -0 -0 -1 -1 -1 -1 -1 -1 -1 -0 0 1 2 2 2 1 1 1 1 1 1 1 0 -1 -0 -0 -0 1 -1 -1 -2 -2 -1 -1
1 1 1 1 0 0 0 -0 -0 -0 -0 -1 -1 -1 -1 -1 -1 -0 0 1 2 2 2 1 1 1 1 1 1 0 0 -0 -0 -0 -1 -0 0 2 0 -1 -2 -2 -1
1 2 1 1 0 0 0 -0 -0 -0 -0 -0 -1 -1 -1 -0 0 -0 0 1 2 2 1 1 1 1 1 1 1 1 0 -0 -0 -0 -1 -0 -0 0 2 1 0 -1 -2
1 1 1 1 1 0 0 -0 0 -0 -0 -0 -0 0 0 1 1 0 1 1 2 2 0 -0 0 1 2 1 1 1 1 1 0 -0 -0 0 1 0 1 3 3 2 -0
1 1 1 1 1 0 1 1 0 0 0 0 1 1 1 1 1 0 1 1 2 2 1 0 1 0 1 1 2 1 1 0 -0 1 2 1 1 1 2 2 2 3 2
1 2 1 1 1 1 1 2 2 2 1 1 1 1 2 1 1 0 0 1 2 2 1 0 0 1 1 1 1 2 3 2 2 2 2 3 4 3 3 3 3 3 4
2 2 2 1 1 1 1 1 1 1 1 1 1 1 1 1 1 -0 -0 0 1 2 1 0 0 1 1 1 2 2 4 4 3 3 3 4 6 7 7 6 5 6 6
4 6 2 1 1 1 1 1 1 1 1 2 1 1 2 1 -0 -0 -0 -0 -0 0 1 0 0 1 2 1 1 2 4 5 4 4 5 7 8 8 9 8 8 8 8
6 7 6 5 1 1 1 1 2 2 3 3 1 1 1 1 0 -0 -1 -1 -0 -0 0 0 -0 0 1 2 2 1 1 1 4 6 7 9 9 10 10 10 10 10 9
8 8 7 6 6 4 1 1 2 2 2 1 2 1 1 1 0 -0 -1 -0 -0 -0 -0 0 0 1 1 1 2 2 2 1 1 3 7 10 11 11 11 11 11 12 11
8 8 8 7 8 7 6 4 2 2 2 2 2 2 1 1 1 0 -0 -0 -0 0 0 0 0 0 1 1 1 1 2 3 3 3 5 9 10 12 12 12 13 13 12